GW4474 Weather Reports


time (UTC)temp
F
wind
direction
speed
knots
gust
knots
rain 1hr
in
rain 24hr
in
rain mn
in
humidity
%
barometer
mb
20260503022024 52 0.0 0.0 0.00 0.01 0.00 92 1012.4
20260503021020 52 0.0 0.0 0.00 0.01 0.00 92 1012.4
20260503020017 52 0.0 0.0 0.00 0.01 0.00 92 1012.5
20260503015114 52 0.0 0.0 0.00 0.01 0.00 92 1012.4
20260503014111 52 0.0 0.0 0.00 0.01 0.00 92 1012.5
20260503013107 52 0.0 0.0 0.00 0.01 0.00 92 1012.6
20260503012124 52 0.0 0.0 0.00 0.01 0.00 92 1012.7
20260503011101 52 0.0 0.0 0.00 0.01 0.00 92 1012.8
20260503010058 52 0.0 0.0 0.00 0.01 0.00 92 1012.8
20260503005055 52 0.0 0.0 0.00 0.01 0.00 91 1012.9
20260503004112 52 0.0 0.0 0.00 0.01 0.00 91 1012.9
20260503003048 52 0.0 0.0 0.00 0.01 0.00 91 1013.0
20260503002045 52 0.0 0.0 0.00 0.01 0.00 91 1013.0
20260503001102 52 0.0 0.0 0.00 0.01 0.00 92 1013.1
20260503000039 52 0.0 0.0 0.00 0.01 0.00 91 1013.0
20260502235035 52 0.0 0.0 0.00 0.01 0.00 91 1013.1
20260502234032 52 0.0 0.0 0.00 0.01 0.00 91 1013.0
20260502233029 52 0.0 0.0 0.00 0.01 0.00 90 1013.2
20260502232026 52 0.0 0.0 0.00 0.01 0.00 91 1013.2
20260502231023 52 0.0 0.0 0.00 0.01 0.00 89 1013.2
20260502230019 52 0.0 0.0 0.00 0.01 0.00 89 1013.2
20260502225016 52 0.0 0.0 0.00 0.01 0.01 89 1013.1
20260502224113 52 0.0 0.0 0.00 0.01 0.01 89 1013.2
20260502223110 53 0.0 0.0 0.00 0.01 0.01 89 1013.2
20260502222106 53 0.0 0.0 0.00 0.01 0.01 89 1013.3
20260502221104 53 0.0 0.0 0.00 0.01 0.01 89 1013.2
20260502220100 53 0.0 0.0 0.00 0.01 0.01 88 1013.2
20260502215057 53 0.0 0.0 0.00 0.01 0.01 87 1013.2
20260502214053 53 0.0 0.0 0.00 0.01 0.01 87 1013.2
20260502213050 53 0.0 0.0 0.01 0.01 0.01 86 1013.2
20260502212107 53 0.0 0.0 0.01 0.01 0.01 85 1013.2
20260502211044 53 0.0 0.0 0.01 0.01 0.01 85 1013.2
20260502210041 54 0.0 0.0 0.01 0.01 0.01 83 1013.1
20260502205038 54 0.0 0.0 0.01 0.01 0.01 83 1013.1
20260502204034 54 0.0 0.0 0.01 0.01 0.01 82 1013.1
20260502203051 54 0.0 0.0 0.00 0.00 0.00 81 1013.1
20260502202028 54 0.0 0.0 0.00 0.00 0.00 80 1013.1
20260502201025 55 0.0 0.0 0.00 0.00 0.00 79 1013.1
20260502200021 56 0.0 0.0 0.00 0.00 0.00 78 1013.1
20260502195019 56 0.0 0.0 0.00 0.00 0.00 77 1013.0
20260502194035 57 0.0 0.0 0.00 0.00 0.00 77 1013.0
20260502193112 57 0.0 0.0 0.00 0.00 0.00 76 1012.9
20260502192109 58 0.0 0.0 0.00 0.00 0.00 74 1012.9
20260502191105 58 0.0 0.0 0.00 0.00 0.00 73 1012.9
20260502185119 58 0.0 0.0 0.00 0.00 0.00 73 1012.8
20260502184056 59 0.0 0.0 0.00 0.00 0.00 73 1012.8
20260502183053 59 0.0 0.0 0.00 0.00 0.00 73 1012.8
20260502182049 59 0.0 0.0 0.00 0.00 0.00 72 1012.8
20260502181046 60 0.0 0.0 0.00 0.00 0.00 71 1012.8
20260502164018 61 0.0 0.0 0.00 0.00 0.00 67 1012.9
20260502163134 61 0.0 0.0 0.00 0.00 0.00 67 1013.0
20260502162112 61 0.0 0.0 0.00 0.00 0.00 67 1013.0
20260502161108 61 0.0 0.0 0.00 0.00 0.00 66 1013.2
20260502160105 62 0.0 0.0 0.00 0.00 0.00 64 1013.2
20260502152052 61 0.0 0.0 0.00 0.00 0.00 60 1013.6
20260502151048 62 0.0 0.0 0.00 0.00 0.00 60 1013.7
20260502130107 62 0.0 0.0 0.00 0.00 0.00 56 1014.8
20260502123057 62 0.0 0.0 0.00 0.00 0.00 57 1015.1
20260502122054 62 0.0 0.0 0.00 0.00 0.00 58 1015.2
20260502121111 63 0.0 0.0 0.00 0.00 0.00 56 1015.3
20260502115104 63 0.0 0.0 0.00 0.00 0.00 58 1015.4
20260502114123 62 0.0 0.0 0.00 0.00 0.00 60 1015.4
20260502113038 62 0.0 0.0 0.00 0.00 0.00 59 1015.3
20260502112035 62 0.0 0.0 0.00 0.00 0.00 59 1015.4
20260502111032 62 0.0 0.0 0.00 0.00 0.00 59 1015.4
20260502110028 63 0.0 0.0 0.00 0.00 0.00 56 1015.4
20260502105025 63 0.0 0.0 0.00 0.00 0.00 57 1015.4
20260502104042 63 0.0 0.0 0.00 0.00 0.00 58 1015.5
20260502103019 63 0.0 0.0 0.00 0.00 0.00 60 1015.5
20260502102016 62 0.0 0.0 0.00 0.00 0.00 59 1015.7
20260502101113 61 0.0 0.0 0.00 0.00 0.00 57 1015.8
20260502100150 63 0.0 0.0 0.00 0.00 0.00 53 1015.9
20260502091053 66 0.0 0.0 0.00 0.00 0.00 55 1016.2
20260502071115 56 0.0 0.0 0.00 0.00 0.00 78 1016.6
20260502070112 56 0.0 0.0 0.00 0.00 0.00 82 1016.5
20260502065149 55 0.0 0.0 0.00 0.00 0.00 84 1016.7
20260502064105 54 0.0 0.0 0.00 0.00 0.00 85 1016.6
20260502063102 53 0.0 0.0 0.00 0.00 0.00 86 1016.6
20260502062059 51 0.0 0.0 0.00 0.00 0.00 86 1016.7
20260502061055 50 0.0 0.0 0.00 0.00 0.00 85 1016.7
20260502060053 50 0.0 0.0 0.00 0.00 0.00 85 1016.6
20260502055049 49 0.0 0.0 0.00 0.00 0.00 85 1016.6
20260502054047 49 0.0 0.0 0.00 0.00 0.00 84 1016.6
20260502053043 49 0.0 0.0 0.00 0.00 0.00 83 1016.5
20260502052040 49 0.0 0.0 0.00 0.00 0.00 82 1016.6
20260502051037 50 0.0 0.0 0.00 0.00 0.00 81 1016.6
20260502050033 50 0.0 0.0 0.00 0.00 0.00 79 1016.8
20260502045050 51 0.0 0.0 0.00 0.00 0.00 78 1016.8
20260502044027 51 0.0 0.0 0.00 0.00 0.00 77 1016.8
20260502043024 52 0.0 0.0 0.00 0.00 0.00 76 1016.8
20260502042021 52 0.0 0.0 0.00 0.00 0.00 74 1016.8
20260502041018 53 0.0 0.0 0.00 0.00 0.00 73 1017.0
20260502040115 53 0.0 0.0 0.00 0.00 0.00 73 1017.1
20260502035111 54 0.0 0.0 0.00 0.00 0.00 71 1017.0
20260502034108 54 0.0 0.0 0.00 0.00 0.00 72 1017.0
20260502033105 55 0.0 0.0 0.00 0.00 0.00 72 1017.1
20260502032102 55 0.0 0.0 0.00 0.00 0.00 72 1017.2
20260502031059 55 0.0 0.0 0.00 0.00 0.00 72 1017.4
20260502030055 54 0.0 0.0 0.00 0.00 0.00 71 1017.3
20260502025052 54 0.0 0.0 0.00 0.00 0.00 71 1017.5
20260502024109 55 0.0 0.0 0.00 0.00 0.00 70 1017.5
20260502023046 55 0.0 0.0 0.00 0.00 0.00 70 1017.6